Weather History for Nogales, AZ

Change the Weather History Date:

Tuesday, August 20, 2013

  Actual Average (KTUS) Record (KTUS)
Temperature  
Mean Temperature 82 °F 85 °F  
Max Temperature 95 °F 98 °F 110 °F (1915)
Min Temperature 68 °F 73 °F 55 °F (1917)
Degree Days  
Heating Degree Days 0 0  
Month to date heating degree days 0  
Since 1 June heating degree days 0  
Since 1 July heating degree days 0  
Cooling Degree Days 16 20  
Month to date cooling degree days 406  
Year to date cooling degree days 2185  
Since 1 June cooling degree days 1683  
Growing Degree Days 32 (Base 50)    
Moisture  
Dew Point 58 °F    
Average Humidity 50    
Maximum Humidity 93    
Minimum Humidity 23    
Precipitation  
Precipitation 0.15 in 0.08 in 0.68 in (1904)
Month to date precipitation 1.62  
Year to date precipitation 7.14  
Sea Level Pressure  
Sea Level Pressure 29.91 in    
Wind  
Wind Speed 8 mph (NNE)    
Max Wind Speed 24 mph    
Max Gust Speed 38 mph    
Visibility 10 miles    
Events Rain , Thunderstorm    
T = Trace of Precipitation, MM = Missing Value Source: NWS Daily Summary

Daily Weather History Graph

Daily Weather History Graph

Search for Another Location

Airport:

Trip Planner

Search our weather history database for the weather conditions in past years. The results will help you decide how hot, cold, wet, or windy it might be!

Date:

Astronomy

Aug. 20, 2013 Rise Set
Actual Time 5:52 AM MST 7:00 PM MST
Civil Twilight 5:26 AM MST 7:25 PM MST
Nautical Twilight 4:56 AM MST 7:55 PM MST
Astronomical Twilight 4:25 AM MST 8:26 PM MST
Moon 6:38 PM MST (8/20) 5:24 AM MST (8/20)
Length of Visible Light 13h 59m
Length of Day
13h 08m
Full, 100% of the Moon is Illuminated
Aug 20
Full
Aug 20
Full
Aug 28
Last Quarter
Sep 5
New
Sep 12
First Quarter

Hourly Weather History & Observations

Time (MST) Temp. Heat Index Dew Point Humidity Pressure Visibility Wind Dir Wind Speed Gust Speed Precip Events Conditions
12:54 AM 77.0 °F - 57.0 °F 50% 29.86 in 10.0 mi South 6.9 mph - N/A   Clear
1:54 AM 75.9 °F - 57.9 °F 54% 29.85 in 10.0 mi South 6.9 mph - N/A   Clear
2:54 AM 75.0 °F - 57.9 °F 55% 29.86 in 10.0 mi South 3.5 mph - N/A   Clear
3:54 AM 75.9 °F - 57.9 °F 54% 29.84 in 10.0 mi NNE 6.9 mph - N/A   Mostly Cloudy
4:54 AM 75.0 °F - 57.9 °F 55% 29.84 in 10.0 mi NNE 8.1 mph - N/A   Clear
5:54 AM 73.9 °F - 57.9 °F 57% 29.85 in 10.0 mi NNE 9.2 mph - N/A   Clear
6:54 AM 75.9 °F - 57.9 °F 54% 29.85 in 10.0 mi NNE 3.5 mph - N/A   Clear
7:54 AM 80.1 °F 80.9 °F 60.1 °F 50% 29.85 in 10.0 mi Calm Calm - N/A   Clear
8:54 AM 82.0 °F 82.1 °F 59.0 °F 45% 29.85 in 10.0 mi South 3.5 mph - N/A   Clear
9:54 AM 87.1 °F 86.5 °F 59.0 °F 39% 29.85 in 10.0 mi Variable 5.8 mph - N/A   Clear
10:54 AM 93.0 °F - 50.0 °F 23% 29.83 in 10.0 mi North - - N/A   Clear
11:54 AM 93.9 °F - 52.0 °F 24% 29.81 in 10.0 mi WNW 3.5 mph - N/A   Clear
12:54 PM 95.0 °F 92.5 °F 53.1 °F 24% 29.79 in 10.0 mi Variable 6.9 mph - N/A   Clear
1:50 PM 91.4 °F 89.1 °F 53.6 °F 28% 30.02 in 10.0 mi WSW 6.9 mph - N/A Thunderstorm Mostly Cloudy
1:54 PM 91.9 °F 89.5 °F 53.1 °F 27% 29.79 in 10.0 mi SW 6.9 mph - N/A Thunderstorm Scattered Clouds
2:20 PM 91.0 °F 88.9 °F 55.0 °F 29% 30.01 in 10.0 mi WNW 5.8 mph - N/A   Clear
2:54 PM 89.1 °F 87.1 °F 55.0 °F 31% 29.78 in 10.0 mi West 8.1 mph - N/A   Clear
3:19 PM 89.1 °F 87.1 °F 55.0 °F 31% 30.00 in 10.0 mi West 9.2 mph - N/A Thunderstorm Clear
3:34 PM 89.1 °F 87.1 °F 55.0 °F 31% 30.00 in 10.0 mi WNW 5.8 mph - N/A   Clear
3:49 PM 87.8 °F 86.1 °F 55.4 °F 33% 30.03 in 10.0 mi North 16.1 mph 26.5 mph N/A Thunderstorm Mostly Cloudy
3:54 PM 84.0 °F 83.3 °F 57.0 °F 40% 29.82 in 10.0 mi NE 24.2 mph 35.7 mph N/A Thunderstorm Mostly Cloudy
4:08 PM 80.1 °F 80.6 °F 57.9 °F 47% 30.05 in 10.0 mi NE 19.6 mph 33.4 mph N/A Thunderstorm Mostly Cloudy
4:37 PM 75.9 °F - 60.1 °F 58% 30.03 in 10.0 mi NNE 20.7 mph 38.0 mph 0.00 in Rain Light Rain
4:54 PM 75.0 °F - 59.0 °F 57% 29.84 in 10.0 mi NNE 18.4 mph 29.9 mph 0.00 in Rain Light Rain
5:25 PM 79.0 °F - 54.0 °F 42% 30.05 in 10.0 mi NNE 15.0 mph 23.0 mph 0.00 in Thunderstorm Overcast
5:40 PM 79.0 °F - 54.0 °F 42% 30.06 in 10.0 mi NE 10.4 mph 18.4 mph 0.00 in   Overcast
5:54 PM 79.0 °F - 54.0 °F 42% 29.87 in 10.0 mi NE 11.5 mph - 0.00 in Thunderstorm Overcast
6:24 PM 75.0 °F - 57.9 °F 55% 30.07 in 10.0 mi ENE 17.3 mph 23.0 mph 0.01 in Rain Light Rain
6:54 PM 70.0 °F - 63.0 °F 78% 29.93 in 6.0 mi SW 9.2 mph - 0.07 in Rain Light Rain
7:54 PM 69.1 °F - 66.0 °F 90% 29.96 in 10.0 mi North 4.6 mph - 0.05 in Rain Light Rain
8:54 PM 69.1 °F - 64.9 °F 87% 29.98 in 9.0 mi SSE 5.8 mph - 0.02 in Rain Light Rain
9:54 PM 69.1 °F - 64.0 °F 84% 29.96 in 10.0 mi Calm Calm - 0.01 in Rain Light Rain
10:54 PM 68.0 °F - 66.0 °F 93% 29.90 in 10.0 mi NE 4.6 mph - 0.00 in Rain Light Rain
11:54 PM 68.0 °F - 63.0 °F 84% 29.88 in 10.0 mi NE 11.5 mph - 0.00 in   Overcast